Buffalo, SD

8:58 AM MST on February 20, 2017 (GMT -0700)
Buffalo

Weather History for K2WX - April, 2014

Change the Weather History Date:

Sunday, April 13, 2014

  Actual Average Record
Temperature  
Mean Temperature 29 °F 42 °F  
Max Temperature 38 °F 54 °F 84 °F (2003)
Min Temperature 20 °F 31 °F 15 °F (1997)
Degree Days  
Heating Degree Days 36 23  
Month to date heating degree days 357 322  
Since 1 July heating degree days 7523 7125  
Cooling Degree Days 0 0  
Month to date cooling degree days 0 0  
Year to date cooling degree days 0 0  
Moisture  
Dew Point 14 °F    
Average Humidity 55    
Maximum Humidity 77    
Minimum Humidity 32    
Precipitation  
Precipitation 0.00 in 0.05 in 0.02 in (2013)
Month to date precipitation 0.23 0.54  
Year to date precipitation 1.69 1.88  
Sea Level Pressure  
Sea Level Pressure 30.20 in    
Wind  
Wind Speed 17 mph (NNW)    
Max Wind Speed 29 mph    
Max Gust Speed 38 mph    
T = Trace of Precipitation, MM = Missing Value Source: NWS Daily Summary

Daily Weather History Graph

Daily Weather History Graph

Search for Another Location

Airport or City:

Trip Planner

Search our weather history database for the weather conditions in past years. The results will help you decide how hot, cold, wet, or windy it might be!

Date:

Astronomy

Apr. 13, 2014 Rise Set
Actual Time 6:12 AM MDT 7:37 PM MDT
Civil Twilight 5:41 AM MDT 8:08 PM MDT
Nautical Twilight 5:03 AM MDT 8:46 PM MDT
Astronomical Twilight 4:24 AM MDT 9:26 PM MDT
Moon 6:14 PM MDT (4/13) 5:16 AM MDT (4/13)
Length of Visible Light 14h 27m
Length of Day
13h 25m
Waxing Gibbous, 97% of the Moon is Illuminated
Apr 13
Waxing Gibbous
Apr 15
Full
Apr 22
Last Quarter
Apr 29
New
May 6
First Quarter

Hourly Weather History & Observations

Time (MDT) Temp. Windchill Dew Point Humidity Pressure Visibility Wind Dir Wind Speed Gust Speed Precip Events Conditions
12:56 AM 28.0 °F 13.6 °F 19.9 °F 72% 30.04 in - North 24.2 mph 27.6 mph N/A   Unknown
1:56 AM 26.1 °F 11.6 °F 19.0 °F 75% 30.06 in - NNW 21.9 mph 31.1 mph N/A   Unknown
2:56 AM 25.0 °F 10.6 °F 18.0 °F 75% 30.06 in - North 20.7 mph - N/A   Unknown
3:56 AM 24.1 °F 9.0 °F 18.0 °F 77% 30.08 in - North 21.9 mph 27.6 mph N/A   Unknown
4:56 AM 24.1 °F 8.7 °F 17.1 °F 75% 30.09 in - NNW 23.0 mph 27.6 mph N/A   Unknown
5:56 AM 23.0 °F 8.3 °F 16.0 °F 74% 30.14 in - NNW 19.6 mph - N/A   Unknown
6:56 AM 23.0 °F 8.3 °F 16.0 °F 74% 30.18 in - North 19.6 mph - N/A   Unknown
7:56 AM 21.9 °F 7.3 °F 15.1 °F 75% 30.20 in - NNW 18.4 mph - N/A   Unknown
8:56 AM 23.0 °F 8.0 °F 14.0 °F 68% 30.23 in - North 20.7 mph - N/A   Unknown
9:56 AM 24.1 °F 9.0 °F 15.1 °F 69% 30.24 in - North 21.9 mph - N/A   Unknown
10:56 AM 26.1 °F 12.0 °F 14.0 °F 60% 30.25 in - NNW 20.7 mph - N/A   Unknown
11:56 AM 30.0 °F 16.3 °F 12.9 °F 49% 30.23 in - NNW 24.2 mph 28.8 mph N/A   Unknown
12:56 PM 34.0 °F 23.4 °F 12.0 °F 40% 30.22 in - North 17.3 mph 29.9 mph N/A   Unknown
1:56 PM 36.0 °F 25.6 °F 10.9 °F 36% 30.21 in - NNW 18.4 mph 35.7 mph N/A   Unknown
2:56 PM 37.9 °F 26.6 °F 10.9 °F 33% 30.20 in - North 25.3 mph 35.7 mph N/A   Unknown
3:56 PM 37.0 °F 25.4 °F 10.0 °F 33% 30.21 in - North 25.3 mph 31.1 mph N/A   Unknown
4:56 PM 36.0 °F 25.3 °F 10.9 °F 36% 30.23 in - NNW 19.6 mph - N/A   Unknown
5:56 PM 35.1 °F 23.5 °F 10.9 °F 37% 30.25 in - North 21.9 mph 28.8 mph N/A   Unknown
6:56 PM 33.1 °F 22.2 °F 10.9 °F 40% 30.26 in - NNW 17.3 mph - N/A   Unknown
7:56 PM 28.9 °F 21.1 °F 12.0 °F 49% 30.28 in - North 8.1 mph - N/A   Unknown
8:56 PM 28.0 °F 22.8 °F 10.9 °F 49% 30.31 in - WNW 4.6 mph - N/A   Unknown
9:56 PM 26.1 °F 19.4 °F 12.0 °F 55% 30.30 in - WNW 5.8 mph - N/A   Unknown
10:56 PM 21.9 °F 13.4 °F 12.9 °F 68% 30.30 in - West 6.9 mph - N/A   Unknown
11:56 PM 19.9 °F 11.1 °F 12.9 °F 74% 30.27 in - WSW 6.9 mph - N/A   Unknown